Location: Bettgenhausen
(50.6463°N, 7.5681°E)
Time: 20:37:46
(UTC+00:00)

IRS-1A Rocket - Pass Details

Date: 27 February 2020
Orbit: 852 x 930 km, 99.2° (Epoch: 03 April)

Event Time Altitude Azimuth Distance (km) Brightness Sun altitude
Rises 18:02:33 0° 144° (SE) 3,414 7.0 -9.6°
Reaches altitude 10° 18:04:58 10° 139° (SE) 2,479 6.3 -10.0°
Maximum altitude 18:10:14 50° 66° (ENE) 1,084 4.4 -10.8°
Drops below altitude 10° 18:15:33 10° 353° (N) 2,502 6.8 -11.7°
Sets 18:18:00 0° 348° (NNW) 3,449 7.6 -12.1°
